Flag for Spain Weather past 2 weeks in Huelva, Spain

Now
75 °F

Sunny.


Feels Like: 78 °F
Forecast: 57 / 78 °F
Wind: 2 mph from North

Location: Rota Airport

Current Time: Oct 24, 2014 at 8:06:22 PM

Latest Report: Oct 24, 2014 at 7:00 PM


Visibility: 10 mi

Pressure: 29.95 "Hg

Humidity: 50%

Dew point: 55 °F

Location of HuelvaLocation

Historic Weather in Huelva — Graph

°F

Huelva temperature yesterday

Maximum temperature yesterday: 84 °F (at 3:00 PM)
Minimum temperature yesterday: 59 °F (at 8:00 AM)
Average temperature yesterday: 70 °F

Past Weeks' High & Low Weather Summary

 TemperatureHumidityPressure
High91 °F (Oct 21, 5:00 PM)100% (Oct 10, 12:02 PM)30.24 "Hg (Oct 10, 12:02 PM)
Low57 °F (Oct 24, 6:00 AM)24% (Oct 24, 3:00 PM)29.71 "Hg (Oct 11, 8:00 PM)
Average71 °F72%30.00 "Hg
* Reported Oct 9 7:00 PM — Oct 24 7:00 PM, Huelva, Weather by CustomWeather, © 2014

Note: Actual official high and low records may vary slightly from our data, if they occured in-between our weather recording intervals... More about our weather records

Advertising

Huelva weather history for previous 24 hours

 ConditionsComfort  
Time TempWeatherWind HumidityBarometerVisibility
7:00 PM
Oct 24
75 °FSunny.2 mph50%29.95 "Hg10 mi
6:00 PM77 °FSunny.6 mph44%29.95 "Hg10 mi
5:00 PM77 °FPassing clouds.3 mph54%29.95 "HgN/A
4:00 PM84 °FPassing clouds.5 mph33%29.95 "HgN/A
3:00 PM86 °FPassing clouds.5 mph24%29.95 "HgN/A
2:00 PM82 °FPassing clouds.5 mph30%29.98 "HgN/A
1:00 PM77 °FSunny.7 mph34%30.01 "Hg10 mi
12:00 PM73 °FPassing clouds.5 mph41%30.01 "HgN/A
11:00 AM68 °FPassing clouds.5 mph56%30.01 "HgN/A
10:00 AM63 °FPassing clouds.3 mph68%30.01 "HgN/A
9:00 AM57 °FClear.7 mph82%29.98 "Hg10 mi
8:00 AM57 °FClear.2 mph82%29.98 "Hg10 mi
7:00 AM59 °FPassing clouds.6 mph82%29.98 "HgN/A
6:00 AM57 °FClear.5 mph82%29.98 "Hg10 mi
5:00 AM59 °FPassing clouds.3 mph82%29.98 "HgN/A
4:00 AM63 °FClear.3 mph73%30.01 "Hg10 mi
3:00 AM63 °FClear.8 mph73%30.01 "Hg10 mi
2:00 AM63 °FClear.2 mph73%30.01 "Hg10 mi
1:00 AM63 °FClear.5 mph73%30.04 "Hg10 mi
12:00 AM66 °FClear.6 mph68%30.04 "Hg10 mi
11:00 PM
Oct 23
68 °FClear.5 mph69%30.04 "Hg10 mi
10:00 PM70 °FClear.7 mph64%30.04 "Hg10 mi
9:00 PM72 °FClear.5 mph61%30.04 "Hg10 mi
8:00 PM73 °FSunny.6 mph61%30.04 "Hg10 mi
Weather by CustomWeather, © 2014

See weather overviewHow to use our weather pages